Time,TemperatureF,DewpointF,PressureIn,WindDirection,WindDirectionDegrees,WindSpeedMPH,WindSpeedGustMPH,Humidity,HourlyPrecipIn,Conditions,Clouds,dailyrainin,SolarRadiationWatts/m^2,SoftwareType,DateUTC
2013-04-29 00:02:00,13.0,-4.0,-100.00,NNE,12,2.0,8.0,45,0.00,,,0.00,0.000000,,2013-04-29 08:02:00,
2013-04-29 00:11:00,13.0,-4.0,-100.00,NNE,12,2.0,8.0,45,0.00,,,0.00,0.000000,,2013-04-29 08:11:00,
2013-04-29 00:21:00,13.0,-4.0,-100.00,NNE,12,2.0,8.0,45,0.00,,,0.00,0.000000,,2013-04-29 08:21:00,
2013-04-29 00:31:00,13.0,-4.0,-100.00,NNE,12,2.0,8.0,45,0.00,,,0.00,0.000000,,2013-04-29 08:31:00,
2013-04-29 00:52:00,13.0,-3.0,-100.00,NNW,347,4.0,8.0,49,0.00,,,0.00,0.000000,,2013-04-29 08:52:00,
2013-04-29 01:01:00,13.0,-3.0,-100.00,NNW,347,4.0,8.0,49,0.00,,,0.00,0.000000,,2013-04-29 09:01:00,
2013-04-29 01:11:00,13.0,-3.0,-100.00,NNW,347,4.0,8.0,49,0.00,,,0.00,0.000000,,2013-04-29 09:11:00,
2013-04-29 01:21:00,13.0,-3.0,-100.00,NNW,347,4.0,8.0,49,0.00,,,0.00,0.000000,,2013-04-29 09:21:00,
2013-04-29 01:32:00,13.0,-3.0,-100.00,NNW,347,4.0,8.0,49,0.00,,,0.00,0.000000,,2013-04-29 09:32:00,
2013-04-29 01:53:00,13.0,-3.0,-100.00,NNW,336,2.0,6.0,49,0.00,,,0.00,0.000000,,2013-04-29 09:53:00,
2013-04-29 02:02:00,13.0,-3.0,-100.00,NNW,336,2.0,6.0,49,0.00,,,0.00,0.000000,,2013-04-29 10:02:00,
2013-04-29 02:12:00,13.0,-3.0,-100.00,NNW,336,2.0,6.0,49,0.00,,,0.00,0.000000,,2013-04-29 10:12:00,
2013-04-29 02:22:00,13.0,-3.0,-100.00,NNW,336,2.0,6.0,49,0.00,,,0.00,0.000000,,2013-04-29 10:22:00,
2013-04-29 02:32:00,13.0,-3.0,-100.00,NNW,336,2.0,6.0,49,0.00,,,0.00,0.000000,,2013-04-29 10:32:00,
2013-04-29 02:52:00,13.0,-2.0,-100.00,NW,319,2.0,4.0,51,0.00,,,0.00,0.000000,,2013-04-29 10:52:00,
2013-04-29 03:02:00,13.0,-2.0,-100.00,NW,319,2.0,4.0,51,0.00,,,0.00,0.000000,,2013-04-29 11:02:00,
2013-04-29 03:12:00,13.0,-2.0,-100.00,NW,319,2.0,4.0,51,0.00,,,0.00,0.000000,,2013-04-29 11:12:00,
2013-04-29 03:21:00,13.0,-2.0,-100.00,NW,319,2.0,4.0,51,0.00,,,0.00,0.000000,,2013-04-29 11:21:00,
2013-04-29 03:31:00,13.0,-2.0,-100.00,NW,319,2.0,4.0,51,0.00,,,0.00,0.000000,,2013-04-29 11:31:00,
2013-04-29 03:52:00,13.0,-1.0,-100.00,NW,310,3.0,6.0,52,0.00,,,0.00,0.000000,,2013-04-29 11:52:00,
2013-04-29 04:01:00,13.0,-1.0,-100.00,NW,310,3.0,6.0,52,0.00,,,0.00,0.000000,,2013-04-29 12:01:00,
2013-04-29 04:12:00,13.0,-1.0,-100.00,NW,310,3.0,6.0,52,0.00,,,0.00,0.000000,,2013-04-29 12:12:00,
2013-04-29 04:21:00,13.0,-1.0,-100.00,NW,310,3.0,6.0,52,0.00,,,0.00,0.000000,,2013-04-29 12:21:00,
2013-04-29 04:31:00,13.0,-1.0,-100.00,NW,310,3.0,6.0,52,0.00,,,0.00,0.000000,,2013-04-29 12:31:00,
2013-04-29 04:52:00,13.0,0.0,-100.00,WNW,303,3.0,4.0,54,0.00,,,0.00,0.000000,,2013-04-29 12:52:00,
2013-04-29 05:01:00,13.0,0.0,-100.00,WNW,303,3.0,4.0,54,0.00,,,0.00,0.000000,,2013-04-29 13:01:00,
2013-04-29 05:11:00,13.0,0.0,-100.00,WNW,303,3.0,4.0,54,0.00,,,0.00,0.000000,,2013-04-29 13:11:00,
2013-04-29 05:21:00,13.0,0.0,-100.00,WNW,303,3.0,4.0,54,0.00,,,0.00,0.000000,,2013-04-29 13:21:00,
2013-04-29 05:31:00,13.0,0.0,-100.00,WNW,303,3.0,4.0,54,0.00,,,0.00,0.000000,,2013-04-29 13:31:00,
2013-04-29 05:52:00,12.0,-2.0,-100.00,NW,319,1.0,5.0,53,0.00,,,0.00,0.000000,,2013-04-29 13:52:00,
2013-04-29 06:01:00,12.0,-2.0,-100.00,NW,319,1.0,5.0,53,0.00,,,0.00,0.000000,,2013-04-29 14:01:00,
2013-04-29 06:11:00,12.0,-2.0,-100.00,NW,319,1.0,5.0,53,0.00,,,0.00,0.000000,,2013-04-29 14:11:00,
2013-04-29 06:21:00,12.0,-2.0,-100.00,NW,319,1.0,5.0,53,0.00,,,0.00,0.000000,,2013-04-29 14:21:00,
2013-04-29 06:32:00,12.0,-2.0,-100.00,NW,319,1.0,5.0,53,0.00,,,0.00,0.000000,,2013-04-29 14:32:00,
2013-04-29 06:33:00,11.0,-3.0,-100.00,West,281,4.0,7.0,52,0.00,,,0.00,14.000000,,2013-04-29 14:33:00,
2013-04-29 06:52:00,11.0,-3.0,-100.00,West,281,4.0,7.0,52,0.00,,,0.00,14.000000,,2013-04-29 14:52:00,
2013-04-29 07:01:00,11.0,-3.0,-100.00,West,281,4.0,7.0,52,0.00,,,0.00,14.000000,,2013-04-29 15:01:00,
2013-04-29 07:12:00,11.0,-3.0,-100.00,West,281,4.0,7.0,52,0.00,,,0.00,14.000000,,2013-04-29 15:12:00,
2013-04-29 07:21:00,11.0,-3.0,-100.00,West,281,4.0,7.0,52,0.00,,,0.00,14.000000,,2013-04-29 15:21:00,
2013-04-29 07:53:00,11.0,-2.0,-100.00,WNW,294,5.0,6.0,55,0.00,,,0.00,146.000000,,2013-04-29 15:53:00,
2013-04-29 08:02:00,11.0,-2.0,-100.00,WNW,294,5.0,6.0,55,0.00,,,0.00,146.000000,,2013-04-29 16:02:00,
2013-04-29 08:12:00,11.0,-2.0,-100.00,WNW,294,5.0,6.0,55,0.00,,,0.00,146.000000,,2013-04-29 16:12:00,
2013-04-29 08:23:00,11.0,-2.0,-100.00,WNW,294,5.0,6.0,55,0.00,,,0.00,146.000000,,2013-04-29 16:23:00,
2013-04-29 08:32:00,11.0,-2.0,-100.00,WNW,294,5.0,6.0,55,0.00,,,0.00,146.000000,,2013-04-29 16:32:00,
2013-04-29 08:52:00,11.0,-2.0,-100.00,WNW,287,3.0,4.0,56,0.00,,,0.00,333.000000,,2013-04-29 16:52:00,
2013-04-29 09:02:00,11.0,-2.0,-100.00,WNW,287,3.0,4.0,56,0.00,,,0.00,333.000000,,2013-04-29 17:02:00,
2013-04-29 09:12:00,11.0,-2.0,-100.00,WNW,287,3.0,4.0,56,0.00,,,0.00,333.000000,,2013-04-29 17:12:00,
2013-04-29 09:22:00,11.0,-2.0,-100.00,WNW,287,3.0,4.0,56,0.00,,,0.00,333.000000,,2013-04-29 17:22:00,
2013-04-29 09:31:00,11.0,-2.0,-100.00,WNW,287,3.0,4.0,56,0.00,,,0.00,333.000000,,2013-04-29 17:31:00,
2013-04-29 09:52:00,13.0,-2.0,-100.00,NNW,331,2.0,5.0,51,0.00,,,0.00,470.000000,,2013-04-29 17:52:00,
2013-04-29 10:01:00,13.0,-2.0,-100.00,NNW,331,2.0,5.0,51,0.00,,,0.00,470.000000,,2013-04-29 18:01:00,
2013-04-29 10:13:00,13.0,-2.0,-100.00,NNW,331,2.0,5.0,51,0.00,,,0.00,470.000000,,2013-04-29 18:13:00,
2013-04-29 10:22:00,13.0,-2.0,-100.00,NNW,331,2.0,5.0,51,0.00,,,0.00,470.000000,,2013-04-29 18:22:00,
2013-04-29 10:31:00,13.0,-2.0,-100.00,NNW,331,2.0,5.0,51,0.00,,,0.00,470.000000,,2013-04-29 18:31:00,
2013-04-29 10:52:00,14.0,-1.0,-100.00,NW,320,4.0,6.0,51,0.00,,,0.00,589.000000,,2013-04-29 18:52:00,
2013-04-29 11:01:00,14.0,-1.0,-100.00,NW,320,4.0,6.0,51,0.00,,,0.00,589.000000,,2013-04-29 19:01:00,
2013-04-29 11:11:00,14.0,-1.0,-100.00,NW,320,4.0,6.0,51,0.00,,,0.00,589.000000,,2013-04-29 19:11:00,
2013-04-29 11:21:00,14.0,-1.0,-100.00,NW,320,4.0,6.0,51,0.00,,,0.00,589.000000,,2013-04-29 19:21:00,
2013-04-29 11:31:00,14.0,-1.0,-100.00,NW,320,4.0,6.0,51,0.00,,,0.00,589.000000,,2013-04-29 19:31:00,
2013-04-29 11:52:00,17.0,-1.0,-100.00,WNW,283,1.0,3.0,45,0.00,,,0.00,675.000000,,2013-04-29 19:52:00,
2013-04-29 12:02:00,17.0,-1.0,-100.00,WNW,283,1.0,3.0,45,0.00,,,0.00,675.000000,,2013-04-29 20:02:00,
2013-04-29 12:11:00,17.0,-1.0,-100.00,WNW,283,1.0,3.0,45,0.00,,,0.00,675.000000,,2013-04-29 20:11:00,
2013-04-29 12:21:00,17.0,-1.0,-100.00,WNW,283,1.0,3.0,45,0.00,,,0.00,675.000000,,2013-04-29 20:21:00,
2013-04-29 12:32:00,17.0,-1.0,-100.00,WNW,283,1.0,3.0,45,0.00,,,0.00,675.000000,,2013-04-29 20:32:00,
2013-04-29 12:52:00,17.0,1.0,-100.00,NNE,32,2.0,4.0,48,0.00,,,0.00,741.000000,,2013-04-29 20:52:00,
2013-04-29 13:01:00,17.0,1.0,-100.00,NNE,32,2.0,4.0,48,0.00,,,0.00,741.000000,,2013-04-29 21:01:00,
2013-04-29 13:11:00,17.0,1.0,-100.00,NNE,32,2.0,4.0,48,0.00,,,0.00,741.000000,,2013-04-29 21:11:00,
2013-04-29 13:21:00,17.0,1.0,-100.00,NNE,32,2.0,4.0,48,0.00,,,0.00,741.000000,,2013-04-29 21:21:00,
2013-04-29 13:32:00,17.0,1.0,-100.00,NNE,32,2.0,4.0,48,0.00,,,0.00,741.000000,,2013-04-29 21:32:00,
2013-04-29 13:53:00,19.0,3.0,-100.00,WNW,282,2.0,6.0,48,0.00,,,0.00,752.000000,,2013-04-29 21:53:00,
2013-04-29 14:02:00,19.0,3.0,-100.00,WNW,282,2.0,6.0,48,0.00,,,0.00,752.000000,,2013-04-29 22:02:00,
2013-04-29 14:13:00,19.0,3.0,-100.00,WNW,282,2.0,6.0,48,0.00,,,0.00,752.000000,,2013-04-29 22:13:00,
2013-04-29 14:23:00,19.0,3.0,-100.00,WNW,282,2.0,6.0,48,0.00,,,0.00,752.000000,,2013-04-29 22:23:00,
2013-04-29 14:32:00,19.0,3.0,-100.00,WNW,282,2.0,6.0,48,0.00,,,0.00,752.000000,,2013-04-29 22:32:00,
2013-04-29 14:52:00,21.0,4.0,-100.00,West,268,1.0,4.0,48,0.00,,,0.00,755.000000,,2013-04-29 22:52:00,
2013-04-29 15:02:00,21.0,4.0,-100.00,West,268,1.0,4.0,48,0.00,,,0.00,755.000000,,2013-04-29 23:02:00,
2013-04-29 15:11:00,21.0,4.0,-100.00,West,268,1.0,4.0,48,0.00,,,0.00,755.000000,,2013-04-29 23:11:00,
2013-04-29 15:22:00,21.0,4.0,-100.00,West,268,1.0,4.0,48,0.00,,,0.00,755.000000,,2013-04-29 23:22:00,
2013-04-29 15:31:00,21.0,4.0,-100.00,West,268,1.0,4.0,48,0.00,,,0.00,755.000000,,2013-04-29 23:31:00,
2013-04-29 15:52:00,23.0,4.0,-100.00,North,7,1.0,3.0,43,0.00,,,0.00,683.000000,,2013-04-29 23:52:00,
2013-04-29 16:01:00,23.0,4.0,-100.00,North,7,1.0,3.0,43,0.00,,,0.00,683.000000,,2013-04-30 00:01:00,
2013-04-29 16:11:00,23.0,4.0,-100.00,North,7,1.0,3.0,43,0.00,,,0.00,683.000000,,2013-04-30 00:11:00,
2013-04-29 16:21:00,23.0,4.0,-100.00,North,7,1.0,3.0,43,0.00,,,0.00,683.000000,,2013-04-30 00:21:00,
2013-04-29 16:31:00,23.0,4.0,-100.00,North,7,1.0,3.0,43,0.00,,,0.00,683.000000,,2013-04-30 00:31:00,
2013-04-29 17:01:00,21.0,3.0,-100.00,North,11,2.0,4.0,45,0.00,,,0.00,498.000000,,2013-04-30 01:01:00,
2013-04-29 17:11:00,21.0,3.0,-100.00,North,11,2.0,4.0,45,0.00,,,0.00,498.000000,,2013-04-30 01:11:00,
2013-04-29 17:21:00,21.0,3.0,-100.00,North,11,2.0,4.0,45,0.00,,,0.00,498.000000,,2013-04-30 01:21:00,
2013-04-29 17:31:00,21.0,3.0,-100.00,North,11,2.0,4.0,45,0.00,,,0.00,498.000000,,2013-04-30 01:31:00,
2013-04-29 18:33:00,22.0,7.0,-100.00,North,353,2.0,5.0,51,-99.99,,,0.00,281.000000,,2013-04-30 02:33:00,
2013-04-29 19:01:00,22.0,7.0,-100.00,North,353,2.0,5.0,51,-99.99,,,0.00,281.000000,,2013-04-30 03:01:00,
2013-04-29 19:11:00,22.0,7.0,-100.00,North,353,2.0,5.0,51,-99.99,,,0.00,281.000000,,2013-04-30 03:11:00,
2013-04-29 19:21:00,22.0,7.0,-100.00,North,353,2.0,5.0,51,-99.99,,,0.00,281.000000,,2013-04-30 03:21:00,
2013-04-29 22:01:00,17.0,10.0,-100.00,NW,317,4.0,8.0,73,-99.99,,,0.00,12.000000,,2013-04-30 06:01:00,
2013-04-29 22:11:00,17.0,10.0,-100.00,NW,317,4.0,8.0,73,-99.99,,,0.00,12.000000,,2013-04-30 06:11:00,
2013-04-29 22:21:00,17.0,10.0,-100.00,NW,317,4.0,8.0,73,-99.99,,,0.00,12.000000,,2013-04-30 06:21:00,
2013-04-29 22:31:00,17.0,10.0,-100.00,NW,317,4.0,8.0,73,-99.99,,,0.00,12.000000,,2013-04-30 06:31:00,
2013-04-29 22:52:00,16.0,10.0,-100.00,NNW,336,3.0,4.0,76,0.00,,,0.00,0.000000,,2013-04-30 06:52:00,
2013-04-29 23:01:00,16.0,10.0,-100.00,NNW,336,3.0,4.0,76,0.00,,,0.00,0.000000,,2013-04-30 07:01:00,
2013-04-29 23:11:00,16.0,10.0,-100.00,NNW,336,3.0,4.0,76,0.00,,,0.00,0.000000,,2013-04-30 07:11:00,
2013-04-29 23:21:00,16.0,10.0,-100.00,NNW,336,3.0,4.0,76,0.00,,,0.00,0.000000,,2013-04-30 07:21:00,
2013-04-29 23:31:00,16.0,10.0,-100.00,NNW,336,3.0,4.0,76,0.00,,,0.00,0.000000,,2013-04-30 07:31:00,
2013-04-29 23:52:00,16.0,11.0,-100.00,NNW,327,2.0,4.0,82,0.00,,,0.00,0.000000,,2013-04-30 07:52:00,